Voltar ao catálogo

FREGAT DEB

AtivoUNKNOWN
NORAD 46111·DEBRIS·🇷🇺 Russia

Lançado Jul 18, 2011 de Baikonur Cosmodrome

Loading…

Próximas Passagens (próximas 24 horas)

TLE

AtualizadoSource: Space-Track

Época: Sep 6, 2026, 16:51 UTC

1 46111U 11037JW  26249.70229689  .00010717  00000-0  28870+0 0  9991
2 46111  50.7520  20.9288 1292112 223.2994 125.8830 10.18717743184124

Acompanhe FREGAT DEB em tempo real com AllMySat

Download on the App Store